This is the latest recevied weather packets stored in our database for station/object WX7FGZ-3. If no packets are shown the sender has not sent any weather packets the latest 10 day(s).
| Time | Temp. | Humidity | Pressure | Rain* | Wind** | Luminosity | Snow |
|---|---|---|---|---|---|---|---|
| 1778112154 | 13.89° C | 30% | 1014.4 hPa | 0 mm | - | - | - |
| 1778111853 | 14.44° C | 31% | 1014.3 hPa | 0 mm | - | - | - |
| 1778111553 | 14.44° C | 32% | 1014 hPa | 0 mm | - | - | - |
| 1778111253 | 13.89° C | 32% | 1014.2 hPa | 0 mm | - | - | - |
| 1778110953 | 14.44° C | 32% | 1014.1 hPa | 0 mm | - | - | - |
| 1778110652 | 13.89° C | 32% | 1014.2 hPa | 0 mm | - | - | - |
| 1778109751 | 13.89° C | 32% | 1013.9 hPa | 0 mm | - | - | - |
| 1778109151 | 14.44° C | 32% | 1013.7 hPa | 0 mm | - | - | - |
| 1778108550 | 14.44° C | 32% | 1013.7 hPa | 0 mm | - | - | - |
| 1778107950 | 14.44° C | 35% | 1013.6 hPa | 0 mm | - | - | - |
| 1778107349 | 13.89° C | 34% | 1013.5 hPa | 0 mm | - | - | - |
| 1778107049 | 14.44° C | 34% | 1013.4 hPa | 0 mm | - | - | - |
| 1778106748 | 14.44° C | 35% | 1013.4 hPa | 0 mm | - | - | - |
| 1778106448 | 14.44° C | 37% | 1013.3 hPa | 0 mm | - | - | - |
| 1778106148 | 14.44° C | 38% | 1013.4 hPa | 0 mm | - | - | - |
| 1778105847 | 14.44° C | 39% | 1013.4 hPa | 0 mm | - | - | - |
| 1778105547 | 13.89° C | 38% | 1013.5 hPa | 0 mm | - | - | - |
| 1778105247 | 14.44° C | 39% | 1013.5 hPa | 0 mm | - | - | - |
| 1778104947 | 14.44° C | 41% | 1013.5 hPa | 0 mm | - | - | - |
| 1778104646 | 13.89° C | 41% | 1013.3 hPa | 0 mm | - | - | - |
| 1778104346 | 13.89° C | 40% | 1013.4 hPa | 0 mm | - | - | - |
| 1778104046 | 13.89° C | 43% | 1013.4 hPa | 0 mm | - | - | - |
| 1778103746 | 13.33° C | 43% | 1013.4 hPa | 0 mm | - | - | - |
| 1778103445 | 13.33° C | 41% | 1013.5 hPa | 0 mm | - | - | - |
| 1778103145 | 13.33° C | 42% | 1013.4 hPa | 0 mm | - | - | - |
* Rain latest hour (hover to see other rain measurements)
** Current wind speed in m/s (hover to see current wind gust speed)